Location: Bari
(41.1330°N, 16.8500°E)
Time: 03:40:46
(UTC+02:00)

ISS - Pass Details

Date: 13 May 2021
Orbit: 417 x 422 km, 51.6° (Epoch: 14 June)

Event Time Altitude Azimuth Distance (km) Brightness Sun altitude
Exits shadow 02:04:28 - 326° (NW) 1,559 -0.5 -28.0°
Reaches altitude 10° 02:04:41 10° 329° (NNW) 1,507 -0.5 -27.9°
Maximum altitude 02:06:33 14° 2° (N) 1,291 -0.5 -27.8°
Drops below altitude 10° 02:08:24 10° 36° (NE) 1,508 0.0 -27.7°
Sets 02:11:19 0° 63° (ENE) 2,374 0.8 -27.5°
